Flag for China Weather past 2 weeks in Kashgar, Xinjiang, China

Now
81 °F

Passing clouds.


Feels Like: 79 °F
Forecast: 63 / 84 °F
Wind: 8 mph from Southwest

Location: Kashi Airport

Current Time: Jul 31, 2014 at 11:52:47 PM

Latest Report: Jul 31, 2014 at 11:00 PM


Visibility: N/A

Pressure: 29.86 "Hg

Humidity: 28%

Dew point: 45 °F

Location of KashgarLocation

Historic Weather in Kashgar — Graph

°F

Kashgar temperature yesterday

Maximum temperature yesterday: 86 °F (at 3:00 PM)
Minimum temperature yesterday: 75 °F (at 7:00 AM)
Average temperature yesterday: 80 °F

Past Weeks' High & Low Weather Summary

 TemperatureHumidityPressure
High99 °F (Jul 24, 5:00 PM)78% (Jul 18, 5:00 AM)30.01 "Hg (Jul 18, 5:00 AM)
Low63 °F (Jul 18, 8:00 AM)10% (Jul 24, 11:00 AM)29.56 "Hg (Jul 28, 7:00 PM)
Average82 °F28%29.81 "Hg
* Reported Jul 16 10:00 PM — Jul 31 10:00 PM, Kashgar, Weather by CustomWeather, © 2014

Note: Actual official high and low records may vary slightly from our data, if they occured in-between our weather recording intervals... More about our weather records

Advertising

Kashgar weather history for previous 24 hours

 ConditionsComfort  
Time TempWeatherWind HumidityBarometerVisibility
10:00 PM
Jul 31
81 °FSunny.10 mph30%29.83 "Hg10 mi
9:00 PM82 °FSunny.8 mph28%29.83 "Hg10 mi
8:00 PM84 °FSunny.10 mph25%29.80 "Hg10 mi
7:00 PM86 °FPassing clouds.13 mph20%29.80 "HgN/A
6:00 PM84 °FSunny.13 mph23%29.83 "Hg10 mi
5:00 PM82 °FSunny.17 mph23%29.83 "Hg10 mi
4:00 PM81 °FSunny.20 mph28%29.86 "Hg10 mi
3:00 PM73 °FScattered clouds.15 mph47%29.89 "HgN/A
2:00 PM75 °FScattered clouds.17 mph44%29.89 "HgN/A
1:00 PM70 °FPartly sunny.15 mph53%29.92 "HgN/A
12:00 PM68 °FSprinkles. Partly sunny.10 mph56%29.95 "HgN/A
11:00 AM70 °FSprinkles. Partly sunny.15 mph50%29.95 "HgN/A
10:00 AM66 °FSprinkles. Partly sunny.8 mph64%29.92 "HgN/A
9:00 AM72 °FPartly sunny.15 mph41%29.95 "HgN/A
8:00 AM73 °FPartly sunny.8 mph33%29.89 "HgN/A
7:00 AM73 °FPassing clouds.3 mph31%29.86 "HgN/A
6:00 AM73 °FPassing clouds.3 mph33%29.86 "HgN/A
5:00 AM73 °FPassing clouds.6 mph33%29.86 "HgN/A
4:00 AM73 °FClear.10 mph33%29.89 "Hg10 mi
3:00 AM75 °FClear.22 mph29%29.86 "Hg10 mi
2:00 AM77 °FClear.10 mph36%29.89 "Hg10 mi
1:00 AM75 °FClear.No wind39%29.89 "Hg10 mi
12:00 AM77 °FPleasantly warm.10 mph34%29.86 "Hg6 mi
11:00 PM
Jul 30
77 °FPassing clouds.10 mph36%29.86 "HgN/A
Weather by CustomWeather, © 2014

See weather overviewHow to use our weather pages